Kampong Khleang, Cambodia

10:17 PM +07 on April 19, 2018 (GMT +0700)
Kampong Khleang

Weather History for 48966 - April, 2014

Change the Weather History Date:

Tuesday, April 15, 2014

  Actual Average Record
Temperature  
Mean Temperature 86 °F -  
Max Temperature 93 °F - - ()
Min Temperature 78 °F - - ()
Cooling Degree Days 20    
Growing Degree Days 36 (Base 50)    
Moisture  
Dew Point 77 °F    
Average Humidity 73    
Maximum Humidity 100    
Minimum Humidity 56    
Precipitation  
Precipitation 0.00 in - - ()
Sea Level Pressure  
Sea Level Pressure 29.79 in    
Wind  
Wind Speed 3 mph ()    
Max Wind Speed 12 mph    
Max Gust Speed -    
Visibility 5.7 miles    
Events      
T = Trace of Precipitation, MM = Missing Value Source: Averaged Metar Reports

Daily Weather History Graph

Daily Weather History Graph

Search for Another Location

Airport or City:

Astronomy

Apr. 15, 2014 Rise Set
Actual Time 5:52 AM +07 6:17 PM +07
Civil Twilight 5:30 AM +07 6:39 PM +07
Nautical Twilight 5:05 AM +07 7:04 PM +07
Astronomical Twilight 4:39 AM +07 7:29 PM +07
Moon 6:22 PM +07 (4/15) 5:37 AM +07 (4/15)
Length of Visible Light 13h 08m
Length of Day
12h 25m
Full, 100% of the Moon is Illuminated
Apr 15
Full
Apr 15
Full
Apr 22
Last Quarter
Apr 29
New
May 7
First Quarter

Hourly Weather History & Observations

Time (+07) Temp. Heat Index Dew Point Humidity Pressure Visibility Wind Dir Wind Speed Gust Speed Precip Events Conditions
12:00 AM 80.6 °F 88.1 °F 78.8 °F 94% 29.80 in 5.0 mi NNE 2.3 mph - N/A   Unknown
12:30 AM 78.8 °F - 78.8 °F 100% 29.80 in 5.0 mi NNE 5.8 mph - N/A   Unknown
1:00 AM 80.6 °F 88.1 °F 78.8 °F 94% 29.80 in 5.0 mi NNE 2.3 mph - N/A   Unknown
7:00 AM 80.6 °F 88.1 °F 78.8 °F 94% 29.83 in 5.0 mi Calm Calm - N/A   Scattered Clouds
7:30 AM 80.6 °F 88.1 °F 78.8 °F 94% 29.83 in 5.0 mi Calm Calm - N/A   Scattered Clouds
8:00 AM 84.2 °F 98.3 °F 80.6 °F 89% 29.86 in 5.0 mi Calm Calm - N/A   Scattered Clouds
8:30 AM 86.0 °F 101.9 °F 80.6 °F 84% 29.86 in 5.0 mi Calm Calm - N/A   Scattered Clouds
9:00 AM 86.0 °F 101.9 °F 80.6 °F 84% 29.86 in 5.0 mi Calm Calm - N/A   Scattered Clouds
9:30 AM 86.0 °F 101.9 °F 80.6 °F 84% 29.86 in 5.0 mi Calm Calm - N/A   Scattered Clouds
10:00 AM 87.8 °F 97.6 °F 75.2 °F 66% 29.86 in 5.0 mi Calm Calm - N/A   Scattered Clouds
10:30 AM 87.8 °F 97.6 °F 75.2 °F 66% 29.86 in 5.0 mi Calm Calm - N/A   Scattered Clouds
11:00 AM 87.8 °F 97.6 °F 75.2 °F 66% 29.86 in 6.2 mi Calm Calm - N/A   Scattered Clouds
11:30 AM 91.4 °F 102.5 °F 75.2 °F 59% 29.83 in 6.2 mi NNE 4.6 mph - N/A   Scattered Clouds
12:00 PM 91.4 °F 102.5 °F 75.2 °F 59% 29.83 in 6.2 mi SSW 4.6 mph - N/A   Scattered Clouds
12:30 PM 91.4 °F 102.5 °F 75.2 °F 59% 29.80 in 6.2 mi SSE 10.4 mph - N/A   Scattered Clouds
1:00 PM 91.4 °F 102.5 °F 75.2 °F 59% 29.80 in 6.2 mi ESE 6.9 mph - N/A   Scattered Clouds
1:30 PM 93.2 °F 105.0 °F 75.2 °F 56% 29.77 in 6.2 mi ESE 11.5 mph - N/A   Scattered Clouds
2:00 PM 91.4 °F 102.5 °F 75.2 °F 59% 29.77 in 6.2 mi SSE 6.9 mph - N/A   Scattered Clouds
2:30 PM 89.6 °F 99.8 °F 75.2 °F 62% 29.74 in 6.2 mi South 9.2 mph - N/A   Scattered Clouds
3:00 PM 89.6 °F 99.8 °F 75.2 °F 62% 29.74 in 6.2 mi SSE 9.2 mph - N/A   Scattered Clouds
3:30 PM 89.6 °F 99.8 °F 75.2 °F 62% 29.71 in 6.2 mi SSE 9.2 mph - N/A   Scattered Clouds
4:00 PM 89.6 °F 99.8 °F 75.2 °F 62% 29.71 in 6.2 mi ESE 9.2 mph - N/A   Scattered Clouds
4:30 PM 91.4 °F 102.5 °F 75.2 °F 59% 29.71 in 6.2 mi SSE 8.1 mph - N/A   Scattered Clouds
5:00 PM 91.4 °F 102.5 °F 75.2 °F 59% 29.71 in 6.2 mi South 10.4 mph - N/A   Scattered Clouds
5:30 PM 89.6 °F 99.8 °F 75.2 °F 62% 29.71 in 6.2 mi South 8.1 mph - N/A   Partly Cloudy
6:00 PM 89.6 °F 99.8 °F 75.2 °F 62% 29.71 in 6.2 mi South 8.1 mph - N/A   Partly Cloudy
6:30 PM 86.0 °F 91.8 °F 71.6 °F 62% 29.74 in 6.2 mi South 3.5 mph - N/A   Scattered Clouds
7:00 PM 84.2 °F 92.3 °F 75.2 °F 74% 29.74 in 6.2 mi South 3.5 mph - N/A   Scattered Clouds
7:30 PM 84.2 °F 92.3 °F 75.2 °F 74% 29.77 in 6.2 mi ESE 2.3 mph - N/A   Scattered Clouds
8:00 PM 84.2 °F 92.3 °F 75.2 °F 74% 29.77 in 6.2 mi ESE 4.6 mph - N/A   Scattered Clouds
8:30 PM 84.2 °F 94.1 °F 77.0 °F 79% 29.77 in 5.6 mi East 4.6 mph - N/A   Scattered Clouds
10:00 PM 82.4 °F 90.9 °F 77.0 °F 84% 29.80 in 5.6 mi SE 2.3 mph - N/A   Unknown
10:30 PM 82.4 °F 90.9 °F 77.0 °F 84% 29.83 in 5.6 mi East 4.6 mph - N/A   Unknown
11:00 PM 80.6 °F 87.1 °F 77.0 °F 89% 29.83 in 5.6 mi Calm Calm - N/A   Unknown
11:30 PM 80.6 °F 88.1 °F 78.8 °F 94% 29.80 in 5.6 mi SW 5.8 mph - N/A   Unknown